Худжанд

Таджикистан     40°17′06″N   69°37′08″E
темп.,
°C
ветер,
м/с
пор.,
м/с
влажн.,
%
обл.,
%
осадки,
мм/ч
давл.,
гПа
погр.,
м
16 апреля, пт
пт1623:00+16юз114439 0.0 101411
02:00+15з224765 0.0 101413
05:00+14з2251100 0.0 101513
08:00+17з1139100 0.0 1016147
11:00+21зсз3330100 0.0 1016798
14:00+23зсз34250 0.0 10161597
17:00+24зсз45220 0.0 10152266
20:00+19зсз12330 0.0 101611
17 апреля, сб
сб1723:00+17ю11370 0.0 101511
02:00+16з11390 0.0 101411
05:00+14зсз22421 0.0 101613
08:00+17зсз22375 0.0 1017176
11:00+22зсз32281 0.0 1016695
14:00+24сз4422100 0.0 10151801
17:00+24сз652098 0.0 10142369
20:00+20сз3931100 0.0 1016231
18 апреля, вс
вс1823:00+18зюз4739100 0.0 1017159
02:00+17зсз3342100 0.0 101756
05:00+16з2342100 0.0 101833
08:00+18з3438100 0.0 1020301
11:00+21зсз3529100 0.0 10201401
14:00+24зсз572335 0.0 10183327
17:00+23сз672127 0.0 10183051
20:00+18ююз22380 0.0 101938
19 апреля, пн
пн1923:00+16вюв114576 0.0 101811
02:00+15вюв1145100 0.0 101711
05:00+15ююв0043100 0.0 101711
08:00+19в333290 0.0 1018259
11:00+22всв4425100 0.0 1016941
14:00+23в1220100 0.0 10151363
17:00+24сз44179 0.0 10132060
20:00+19ссз22274 0.0 101412
20 апреля, вт
вт2023:00+16зюз223424 0.0 101320
02:00+15з2241100 0.0 101317
05:00+13зсз224477 0.0 101211
08:00+17з113664 0.0 1013188
11:00+22сз112457 0.0 10121053
14:00+25зсз3320100 0.0 10091886
17:00+24сз7721100 0.0 10092419
20:00+18юз5746100 0.0 1012300